Location: Gouy
(50.0008°N, 3.2556°E)
Time: 21:02:52
(UTC+00:00)

Okean 1-7 - Pass Details

Date: 23 May 2024
Orbit: 579 x 604 km, 82.5° (Epoch: 14 June)

Event Time Altitude Azimuth Distance (km) Brightness Sun altitude
Exits shadow 01:30:18 28° 213° (SSW) 1,131 3.8 -15.5°
Maximum altitude 01:32:23 59° 283° (WNW) 699 3.2 -15.4°
Drops below altitude 10° 01:36:40 10° 3° (N) 1,959 6.7 -15.1°
Sets 01:38:56 0° 8° (N) 2,870 7.9 -14.9°
